Starlink 3554

operational
NORAD ID: 51872 Int'l Des: 2022-022 Owner: SPXS Country: US Constellation: starlink
LEOCIRCULAR

Über Starlink 3554

Beschreibung wird geladen...

Live-Position

3D-Globus wird geladen...

Nächste Überflüge

Höhenverlauf

Altitude vs Time

uPlot chart will show altitude changes over time

Zweizeiliger Elementsatz

1 51872U 22022W 25351.81528829 .00002942 00000-0 20292-3 0 9995
2 51872 53.2176 16.6696 0001536 100.5276 259.5889 15.08825670210752
Epoch: 17. Dez. 2025 • Age: 15 hours

Aktueller Status

Höhe 557.7 km
Geschwindigkeit 7.58 km/s
Subsatellitenpunkt -49.38°S, 1.85°E
Startdatum 3. März 2022
Alter 3.7 years
Typ internet

Technische Details

Klassifizierung Payload
Masse 297.00 kg
Trockenmasse 275.00 kg
Gesamtmasse 297.00 kg
Länge 0.20 m
Durchmesser 2.80 m
Spannweite 9.00 m
Form Box + pan
Hersteller SPXS
Bus-Typ Starlink
Phasenstatus In Orbit
Besitzer/Staat SPXS/US

Große Konstellationen

Loading constellations...